Regional Weather Roundup
Issued by NWS

Home | Current Version | Previous Version | Text Only | Print | Product List | Glossary Off
Versions: 1 2 3 4 5 6 7 8 9 10 11 12 13 14 15 16 17 18 19 20 21 22 23 24 25 26 27 28 29 30 31 32 33 34 35 36 37 38 39 40 41 42 43 44 45 46 47 48 49 50

000
ASUS45 KBOU 072007
RWRCO

WEATHER ROUNDUP FOR COLORADO
NATIONAL WEATHER SERVICE DENVER/BOULDER CO
100 PM MST WED DEC 07 2016

NOTE: "FAIR" INDICATES FEW OR NO CLOUDS BELOW 12000 FEET WITH NO
SIGNIFICANT WEATHER AND/OR OBSTRUCTIONS TO VISIBILITY.

COZ001>005-013-030-031-072100-
...NORTHWEST COLORADO...

CITY           SKY/WX    TMP DP  RH WIND       PRES   REMARKS
CRAIG          FAIR      19   3  49 W9        30.15S WCI   8
HAYDEN         PTSUNNY   14   0  52 W12       30.12R WCI   0
MEEKER         FAIR      18  10  71 SW9       30.12S WCI   7
MOUNT WERNER   NOT AVBL
STEAMBOAT SPGS FAIR      15   2  57 SW12G20   30.08S WCI   2
WALDEN           N/A      9   0  66 N10       30.00R WCI  -6
$$

COZ006>008-011-072100-
...WEST CENTRAL VALLEYS...

CITY           SKY/WX    TMP DP  RH WIND       PRES   REMARKS
GRAND JUNCTION FAIR      33   7  33 VRB5      30.14F WCI  29
MONTROSE       FAIR      29   5  36 VRB5      30.14F WCI  24
EAGLE          PTSUNNY   21   9  58 W12       30.09S WCI   9
RIFLE          CLOUDY    26   8  46 NW13      30.14S WCI  15
DELTA          FAIR      35  -6  16 NW14G21   30.13F WCI  26
NUCLA          NOT AVBL
$$

COZ017>023-064>068-072100-
...SOUTHWEST COLORADO...

CITY           SKY/WX    TMP DP  RH WIND       PRES   REMARKS
DURANGO        FAIR      33  -4  20 W14G25    30.01S WCI  23
CORTEZ         FAIR      34  -1  22 NW10      30.08F WCI  26
PAGOSA SPRINGS FAIR      31  -1  25 SW14G20   29.97S WCI  21
TELLURIDE      FAIR      18  -2  42 W5        30.01F WCI  11
WOLF CREEK PAS FAIR       9   5  85 S20G31    29.90S WCI -11
$$

COZ009-010-012-014-032>034-037-058>063-072100-
...CENTRAL COLORADO...

CITY           SKY/WX    TMP DP  RH WIND       PRES   REMARKS
ASPEN          CLOUDY    16   4  59 N9        30.00S WCI   4
BUENA VISTA    PTSUNNY   23  -9  24 SW17G23   29.95S WCI   9
COPPER MTN     NOT AVBL
BERTHOUD PASS  SNOW      -9 -20  59 NW24G30   29.73R VSB 1/2 WCI -36
COTTONWOOD PAS PTSUNNY   16 -13  27 SW23G38   29.88R WCI  -2
GUNNISON       FLURRIES  22   1  40 SW12G18   30.01S WCI  10
KREMMLING      CLOUDY    19   3  49 N13       30.04S WCI   7
LEADVILLE      LGT SNOW   6  -6  57 NW12G26   29.88S WCI  -9
MONARCH PASS   TSTM       0  -4  85 W33G40    29.91S VSB 3/4 WCI -27
SALIDA         PTSUNNY   26   0  32 W15G23    30.05S WCI  14
SUNLIGHT       CLOUDY     1   0  92 SW10      29.95R WCI -14
WILKERSON PASS FAIR       5  -8  56 W9G21     29.84S HAZE    WCI  -9
$$

COZ069>075-072100-
...SAN LUIS VALLEY/SANGRE DE CRISTO MOUNTAINS...

CITY           SKY/WX    TMP DP  RH WIND       PRES   REMARKS
ALAMOSA        FAIR      29   1  30 N10       29.95F WCI  20
LA VETA PASS   FAIR      12   3  67 N8        29.88S WCI   1
SAGUACHE       FAIR      27  -4  26 N18G28    29.96F WCI  13
$$

COZ035-036-038>040-072100-
...NORTHERN COLORADO FRONT RANGE...

CITY           SKY/WX    TMP DP  RH WIND       PRES   REMARKS
DENVER INTL AP PTSUNNY   10   3  73 NE7       30.18S HAZE    WCI  -1
DMNS CITY PARK   N/A     10   3  72 NE7       30.19S WCI  -1
AURORA         PTSUNNY    9   3  75 NE5       30.17R WCI   1
FRONT RANGE AP CLOUDY    10   5  79 N6        30.18  WCI   1
ERIE MUNI ARPT CLOUDY    12   5  72 E6        30.21S WCI   3
BOULDER MUN AP LGT SNOW  12   5  73 NE3       30.19S
CENTENNIAL     LGT SNOW  10   3  73 NE5       30.14S VSB 1   WCI   2
BROOMFIELD     CLOUDY    12   5  73 NE8       30.17S FOG     WCI   1
FORT COLLINS   PTSUNNY   12   3  67 N5        30.23R WCI   4
LONGMONT       LGT SNOW  16   5  62 E3        30.24S
$$

COZ041-046-047-076>085-087-088-072100-
...PIKES PEAK/PALMER DIVIDE AND SOUTHERN FOOTHILLS...

CITY           SKY/WX    TMP DP  RH WIND       PRES   REMARKS
COLO. SPRINGS  FLURRIES  18   7  62 E10       30.07S WCI   6
A. F. ACADEMY  CLOUDY    15   6  66 NW8       30.05R WCI   4
SCHRIEVER AFB  NOT AVBL
ELLICOTT       MIX PCPN N/A N/A N/A MISG      30.08R
FALCON         CLOUDY    15   6  68 NE9       30.06R WCI   3
FORT CARSON    CLOUDY    21   9  58 SE6       30.08R WCI  14
LIMON          LGT SNOW  13   8  81 NE12      30.16R WCI  -1
MONUMENT HILL  CLOUDY     9   3  78 N6        30.06R WCI  -1
TRINIDAD       CLOUDY    21  10  62 NE8       30.10F HAZE    WCI  11
$$

COZ042>045-048>051-090-091-072100-
...NORTHEAST COLORADO...

CITY           SKY/WX    TMP DP  RH WIND       PRES   REMARKS
GREELEY ARPT   CLOUDY    11   2  67 NE8       30.26S WCI  -1
AKRON          LGT SNOW  10   3  73 N14       30.23R WCI  -6
BURLINGTON     LGT SNOW  15   7  70 NE14      30.23S WCI   0
WRAY           FLURRIES  19  10  68 N10       30.29F WCI   8
STERLING       CLOUDY    14   7  73 N10       30.28R WCI   1
HOLYOKE        PTSUNNY   19  10  68 NW13      30.29R WCI   7
FORT MORGAN    CLOUDY    15   5  63 N9        30.26R WCI   3
$$

COZ086-089-092>099-072100-
...SOUTHEAST COLORADO...

CITY           SKY/WX    TMP DP  RH WIND       PRES   REMARKS
PUEBLO         CLOUDY    25  10  53 E7        30.15F WCI  17
LA JUNTA       LGT SNOW  20  14  77 E10       30.21S WCI   9
LAMAR          LGT SNOW  20  13  74 NE12      30.23R WCI   8
SPRINGFIELD      N/A     18  13  80 N18       30.16R WCI   2
$$



USA.gov is the U.S. government's official web portal to all federal, state and local government web resources and services.